{"data":{"norad_id":50321,"intl_designator":"2021-129A","name":"SHIYAN-12 01 (SY-12 01)","alt_names":[],"object_type":"PAYLOAD","status":"ACTIVE","operator":null,"country":"PRC","launch_date":"2021-12-23","launch_site_code":"WSC","launch_vehicle":null,"mission":null,"orbit_class":"UNKNOWN","rcs_meters":null,"size_class":null,"mass_kg":null,"dimensions":null,"purposes":["comms"],"wikipedia_slug":null,"has_3d_model":false,"image_url":null,"decayed_at":null,"tle_current":{"epoch":"2026-05-24T11:00:44.582112Z","epoch_age_seconds":115833,"freshness":"FRESH","line1":"1 50321U 21129A   26144.45884933 -.00000087  00000+0  00000+0 0  9991","line2":"2 50321   3.6157  80.2207 0003851 284.4923 122.5746  1.00037720 16265","mean_motion":1.0003772,"eccentricity":0.0003851,"inclination_deg":3.6157,"raan_deg":80.2207,"arg_perigee_deg":284.4923,"mean_anomaly_deg":122.5746,"bstar":0,"rev_number":1626,"period_min":1439.4570368057,"perigee_km":35836.076827923,"apogee_km":35868.602741143,"semimajor_km":42230.476784533,"source":"CELESTRAK","updated_at":"2026-05-25T13:38:14.105879Z"}}}